Weather History for Jendouba, Tunisia

Change the Weather History Date:

Wednesday, February 13, 2013

  Actual Average Record
Temperature  
Mean Temperature 45 °F -  
Max Temperature 49 °F - - ()
Min Temperature 41 °F - - ()
Degree Days  
Heating Degree Days 20    
Moisture  
Dew Point 42 °F    
Average Humidity 87    
Maximum Humidity 93    
Minimum Humidity 74    
Precipitation  
Precipitation 0.51 in - - ()
Sea Level Pressure  
Sea Level Pressure 29.94 in    
Wind  
Wind Speed 11 mph ()    
Max Wind Speed 20 mph    
Max Gust Speed 31 mph    
Visibility 5.3 miles    
Events Rain    
T = Trace of Precipitation, MM = Missing Value Source: Averaged Metar Reports

Daily Weather History Graph

Daily Weather History Graph

Search for Another Location

Airport:

Trip Planner

Search our weather history database for the weather conditions in past years. The results will help you decide how hot, cold, wet, or windy it might be!

Date:

Astronomy

Feb. 13, 2013 Rise Set
Actual Time 7:14 AM CET 6:03 PM CET
Civil Twilight 6:48 AM CET 6:30 PM CET
Nautical Twilight 6:18 AM CET 7:00 PM CET
Astronomical Twilight 5:48 AM CET 7:30 PM CET
Moon 8:42 AM CET (2/13) 9:41 PM CET (2/13)
Length of Visible Light 11h 41m
Length of Day
10h 48m
Waxing Crescent, 12% of the Moon is Illuminated
Feb 13
Waxing Crescent
Feb 17
First Quarter
Feb 25
Full
Mar 4
Last Quarter
Mar 11
New

Hourly Weather History & Observations

Time (CET) Temp. Windchill Dew Point Humidity Pressure Visibility Wind Dir Wind Speed Gust Speed Precip Events Conditions
1:00 AM 43 °F - 40 °F 87% 29.92 in 5 mi SW 9.2 mph - -   Partly Cloudy
1:00 AM 42.8 °F 37.5 °F 41.0 °F 93% 29.92 in 5.0 mi SW 9.2 mph - N/A   Scattered Clouds
7:00 AM 42 °F - 40 °F 88% 29.92 in 4 mi WSW 11.5 mph - - Rain Light Rain Showers
7:00 AM 41.0 °F 34.3 °F 39.2 °F 93% 29.92 in 3.7 mi WSW 11.5 mph - N/A Rain Light Rain Showers
8:00 AM 42.8 °F 36.6 °F 41.0 °F 93% 29.95 in 3.7 mi WSW 11.5 mph - N/A Rain Rain Showers
9:00 AM 42.8 °F 38.6 °F 41.0 °F 93% 29.95 in 5.0 mi SSW 6.9 mph - N/A Rain Light Rain Showers
10:00 AM 43 °F - 41 °F 89% 29.97 in 4 mi WSW 9.2 mph - - Rain Light Rain Showers
10:00 AM 42.8 °F 37.5 °F 41.0 °F 93% 29.95 in 3.7 mi WSW 9.2 mph - N/A Rain Light Rain Showers
12:00 PM 46.4 °F 40.4 °F 42.8 °F 87% 29.95 in 6.2 mi WSW 13.8 mph - N/A   Scattered Clouds
12:30 PM 48.2 °F - 42.8 °F 82% 29.92 in 6.2 mi WSW 19.6 mph 31.1 mph N/A   Scattered Clouds
1:00 PM 48 °F - 42 °F 74% 29.94 in 7 mi WSW 18.4 mph - -   Partly Cloudy
1:00 PM 48.2 °F - 42.8 °F 82% 29.92 in 6.2 mi WSW 18.4 mph 31.1 mph N/A   Scattered Clouds
2:00 PM 48.2 °F - 42.8 °F 82% 29.92 in 6.2 mi West 18.4 mph - N/A   Scattered Clouds
3:00 PM 48.2 °F - 42.8 °F 82% 29.92 in 6.2 mi West 11.5 mph - N/A   Scattered Clouds
4:00 PM 48 °F - 42 °F 74% 29.93 in 7 mi West 11.5 mph - -   Partly Cloudy
4:00 PM 48.2 °F - 42.8 °F 82% 29.92 in 6.2 mi West 11.5 mph - N/A   Scattered Clouds
5:00 PM 48.2 °F - 42.8 °F 82% 29.92 in 6.2 mi West 11.5 mph - N/A   Scattered Clouds
6:00 PM 46.4 °F 41.9 °F 42.8 °F 87% 29.92 in 6.2 mi SW 9.2 mph - N/A   Scattered Clouds
7:00 PM 46 °F - 43 °F 87% 29.96 in 5 mi West 11.5 mph - - Rain Light Rain Showers
7:00 PM 46.4 °F 41.1 °F 42.8 °F 87% 29.95 in 5.0 mi West 11.5 mph - N/A Rain Rain Showers
8:00 PM 44.6 °F 38.1 °F 42.8 °F 93% 29.95 in 5.0 mi WSW 13.8 mph - N/A   Scattered Clouds
9:00 PM 44.6 °F 38.8 °F 42.8 °F 93% 29.95 in 5.0 mi WSW 11.5 mph - N/A   Scattered Clouds
10:00 PM 44 °F - 42 °F 91% 29.98 in 5 mi WSW 16.1 mph - - Rain Light Rain Showers
10:00 PM 44.6 °F 37.4 °F 42.8 °F 93% 29.98 in 5.0 mi WSW 16.1 mph - N/A   Scattered Clouds
11:00 PM 44.6 °F 37.4 °F 42.8 °F 93% 29.98 in 5.0 mi WSW 16.1 mph - N/A   Scattered Clouds